EW4443 Weather Reports


time (UTC)temp
C
wind
direction
speed
KPH
gust
KPH
rain 1hr
cm
rain 24hr
cm
rain mn
cm
humidity
%
barometer
mb
20260505235355 26 203 3.2 14.5 0.00 0.00 0.00 22 1007.6
20260505234853 26 293 3.2 14.5 0.00 0.00 0.00 22 1007.6
20260505234625 26 248 3.2 12.9 0.00 0.00 0.00 22 1007.3
20260505234124 26 180 3.2 16.1 0.00 0.00 0.00 22 1007.6
20260505233624 26 225 3.2 17.7 0.00 0.00 0.00 22 1007.6
20260505232853 26 270 3.2 17.7 0.00 0.00 0.00 22 1007.6
20260505232623 26 270 3.2 16.1 0.00 0.00 0.00 22 1007.6
20260505231854 26 270 3.2 16.1 0.00 0.00 0.00 22 1007.6
20260505231352 26 293 3.2 17.7 0.00 0.00 0.00 22 1007.6
20260505230853 26 225 3.2 17.7 0.00 0.00 0.00 22 1007.6
20260505230353 26 293 4.8 17.7 0.00 0.00 0.00 24 1007.6
20260505225854 26 0 3.2 17.7 0.00 0.00 0.00 22 1007.6
20260505225351 27 180 4.8 16.1 0.00 0.00 0.00 22 1007.6
20260505224852 26 248 3.2 16.1 0.00 0.00 0.00 24 1007.6
20260505224622 26 135 3.2 20.9 0.00 0.00 0.00 22 1007.6
20260505223852 27 248 3.2 22.5 0.00 0.00 0.00 22 1008.0
20260505223352 27 45 3.2 22.5 0.00 0.00 0.00 22 1008.0
20260505222859 27 45 3.2 19.3 0.00 0.00 0.00 24 1008.0
20260505222853 27 338 3.2 19.3 0.00 0.00 0.00 22 1008.0
20260505222353 27 270 3.2 19.3 0.00 0.00 0.00 22 1008.0
20260505221353 26 270 3.2 19.3 0.00 0.00 0.00 24 1008.0
20260505221122 26 338 3.2 17.7 0.00 0.00 0.00 22 1008.0
20260505221110 26 293 3.2 17.7 0.00 0.00 0.00 22 1008.0
20260505215852 26 203 3.2 14.5 0.00 0.00 0.00 24 1008.3
20260505215622 26 225 3.2 14.5 0.00 0.00 0.00 22 1008.3
20260505215122 26 203 3.2 16.1 0.00 0.00 0.00 24 1008.0
20260505214352 26 225 4.8 17.7 0.00 0.00 0.00 22 1008.3
20260505214122 26 180 3.2 19.3 0.00 0.00 0.00 25 1008.7
20260505213352 26 180 4.8 19.3 0.00 0.00 0.00 25 1008.7
20260505212852 26 180 3.2 16.1 0.00 0.00 0.00 25 1008.3
20260505212351 26 270 3.2 16.1 0.00 0.00 0.00 25 1008.7
20260505212122 26 203 3.2 16.1 0.00 0.00 0.00 25 1008.3
20260505211347 26 135 4.8 20.9 0.00 0.00 0.00 25 1008.7
20260505210833 26 248 4.8 20.9 0.00 0.00 0.00 25 1008.7
20260505210340 26 180 4.8 19.3 0.00 0.00 0.00 25 1008.7
20260505210336 26 203 4.8 20.9 0.00 0.00 0.00 25 1008.7
20260505205332 26 180 3.2 19.3 0.00 0.00 0.00 27 1009.0
20260505204832 26 180 3.2 16.1 0.00 0.00 0.00 27 1009.0
20260505204332 26 270 3.2 19.3 0.00 0.00 0.00 27 1008.7
20260505203831 25 180 3.2 19.3 0.00 0.00 0.00 29 1009.0
20260505203331 25 248 3.2 12.9 0.00 0.00 0.00 27 1008.7
20260505202831 25 270 1.6 16.1 0.00 0.00 0.00 30 1009.0
20260505202331 25 225 3.2 16.1 0.00 0.00 0.00 30 1009.0
20260505201832 25 270 3.2 14.5 0.00 0.00 0.00 31 1009.0
20260505201332 25 248 3.2 14.5 0.00 0.00 0.00 31 1009.0
20260505200832 25 270 3.2 14.5 0.00 0.00 0.00 30 1009.0
20260505200603 25 135 3.2 12.9 0.00 0.00 0.00 31 1009.3
20260505195832 25 270 3.2 12.9 0.00 0.00 0.00 32 1009.3
20260505195330 25 203 3.2 14.5 0.00 0.00 0.00 32 1009.3
20260505194830 25 225 3.2 19.3 0.00 0.00 0.00 32 1009.3
20260505194332 25 158 4.8 19.3 0.00 0.00 0.00 34 1009.3
20260505194101 25 180 3.2 17.7 0.00 0.00 0.00 35 1009.3
20260505193332 25 203 4.8 19.3 0.00 0.00 0.00 34 1009.7
20260505192830 25 248 3.2 19.3 0.00 0.00 0.00 34 1009.3
20260505192330 24 180 3.2 16.1 0.00 0.00 0.00 35 1009.3
20260505191830 24 225 4.8 16.1 0.00 0.00 0.00 35 1009.7
20260505191331 24 203 3.2 14.5 0.00 0.00 0.00 35 1009.7
20260505191101 24 270 3.2 16.1 0.00 0.00 0.00 37 1009.7
20260505190329 23 225 3.2 19.3 0.00 0.00 0.00 37 1009.7
20260505185829 23 225 4.8 19.3 0.00 0.00 0.00 37 1010.0
20260505185329 23 203 4.8 16.1 0.00 0.00 0.00 37 1009.7
20260505184830 23 180 3.2 14.5 0.00 0.00 0.00 37 1009.7
20260505184329 23 180 3.2 16.1 0.00 0.00 0.00 37 1010.0
20260505183830 23 180 4.8 16.1 0.00 0.00 0.00 37 1010.0
20260505183330 23 203 3.2 16.1 0.00 0.00 0.00 35 1010.0
20260505182829 23 158 3.2 12.9 0.00 0.00 0.00 37 1010.0
20260505182329 23 203 3.2 19.3 0.00 0.00 0.00 37 1010.0
20260505181828 23 203 3.2 19.3 0.00 0.00 0.00 37 1010.0
20260505181328 23 180 3.2 19.3 0.00 0.00 0.00 37 1010.0
20260505180828 23 225 3.2 16.1 0.00 0.00 0.00 37 1010.0
20260505180604 23 203 3.2 14.5 0.00 0.00 0.00 40 1010.0
20260505175829 23 225 1.6 12.9 0.00 0.00 0.00 40 1009.7
20260505175310 23 225 3.2 12.9 0.00 0.00 0.00 40 1010.0
20260505174810 23 135 3.2 12.9 0.00 0.00 0.00 43 1010.0
20260505174540 22 203 3.2 12.9 0.00 0.00 0.00 43 1010.5
20260505173809 22 203 3.2 14.5 0.00 0.00 0.00 44 1010.0
20260505173309 22 225 3.2 14.5 0.00 0.00 0.00 44 1010.0
20260505172809 22 203 1.6 12.9 0.00 0.00 0.00 45 1010.0
20260505172309 22 180 3.2 12.9 0.00 0.00 0.00 44 1010.0
20260505171809 22 180 3.2 12.9 0.00 0.00 0.00 45 1010.0
20260505171309 22 248 1.6 12.9 0.00 0.00 0.00 45 1010.0
20260505170810 22 180 3.2 12.9 0.00 0.00 0.00 45 1010.0
20260505170309 22 180 1.6 12.9 0.00 0.00 0.00 45 1010.0
20260505165808 22 315 1.6 12.9 0.00 0.00 0.00 45 1010.0
20260505165309 22 180 3.2 12.9 0.00 0.00 0.00 46 1010.0
20260505164809 22 225 3.2 12.9 0.00 0.00 0.00 48 1010.0
20260505164308 21 248 3.2 11.3 0.00 0.00 0.00 49 1009.7
20260505163810 21 225 1.6 9.7 0.00 0.00 0.00 49 1010.0
20260505163540 21 180 3.2 11.3 0.00 0.00 0.00 49 1010.0
20260505162809 21 180 1.6 11.3 0.00 0.00 0.00 49 1010.5
20260505162540 21 180 1.6 11.3 0.00 0.00 0.00 49 1010.0
20260505161809 21 203 3.2 12.9 0.00 0.00 0.00 50 1010.5
20260505161539 21 158 3.2 12.9 0.00 0.00 0.00 50 1010.5
20260505160808 21 180 3.2 11.3 0.00 0.00 0.00 50 1010.0
20260505160538 21 158 3.2 12.9 0.00 0.00 0.00 50 1010.5
20260505153309 21 203 1.6 8.0 0.00 0.00 0.00 51 1010.5
20260505152809 21 158 1.6 8.0 0.00 0.00 0.00 53 1010.0
20260505152307 20 180 1.6 9.7 0.00 0.00 0.00 53 1010.0
20260505151807 20 180 1.6 9.7 0.00 0.00 0.00 53 1010.0
20260505151307 20 225 1.6 9.7 0.00 0.00 0.00 54 1010.0
20260505150807 20 180 1.6 11.3 0.00 0.00 0.00 54 1010.0
20260505150308 20 180 3.2 11.3 0.00 0.00 0.00 55 1010.0
20260505140308 20 180 3.2 9.7 0.00 0.00 0.00 61 1010.0
20260505130307 19 135 1.6 9.7 0.00 0.00 0.00 58 1009.7
20260505124807 19 90 0.0 3.2 0.00 0.00 0.00 60 1009.3
20260505124308 19 203 0.0 3.2 0.00 0.00 0.00 59 1009.3
20260505123807 19 135 0.0 4.8 0.00 0.00 0.00 59 1009.7
20260505123307 19 203 1.6 4.8 0.00 0.00 0.00 59 1009.3
20260505122807 19 158 0.0 4.8 0.00 0.00 0.00 59 1009.3
20260505122306 19 248 0.0 3.2 0.00 0.00 0.00 60 1009.3
20260505121805 18 225 0.0 4.8 0.00 0.00 0.00 60 1009.0
20260505121306 19 68 0.0 4.8 0.00 0.00 0.00 60 1009.3
20260505120806 19 225 0.0 0.0 0.00 0.00 0.00 60 1009.0
20260505120307 19 270 0.0 0.0 0.00 0.00 0.00 60 1009.0
20260505115807 19 315 0.0 0.0 0.00 0.00 0.00 59 1009.3
20260505115307 19 45 0.0 0.0 0.00 0.00 0.00 59 1009.3
20260505114807 19 315 0.0 1.6 0.00 0.00 0.00 58 1009.3
20260505114307 19 315 0.0 4.8 0.00 0.00 0.00 56 1009.0
20260505113805 19 203 0.0 4.8 0.00 0.00 0.00 55 1009.0
20260505113306 19 45 0.0 1.6 0.00 0.00 0.00 55 1009.0
20260505112806 19 90 0.0 4.8 0.00 0.00 0.00 55 1009.3
20260505112306 19 135 0.0 6.4 0.00 0.00 0.00 55 1009.0
20260505111807 20 158 1.6 6.4 0.00 0.00 0.00 55 1009.0
20260505111538 20 180 1.6 8.0 0.00 0.00 0.00 55 1009.0
20260505110807 20 158 1.6 8.0 0.00 0.00 0.00 55 1009.0
20260505110539 20 90 1.6 8.0 0.00 0.00 0.00 55 1009.0
20260505101806 19 180 3.2 14.5 0.00 0.00 0.00 55 1009.7
20260505101307 19 203 3.2 16.1 0.00 0.00 0.00 55 1009.7
20260505100806 19 225 3.2 16.1 0.00 0.00 0.00 55 1009.7
20260505100305 19 180 3.2 14.5 0.00 0.00 0.00 54 1010.0
20260505100036 19 158 3.2 14.5 0.00 0.00 0.00 54 1010.0
20260505095305 19 248 3.2 14.5 0.00 0.00 0.00 54 1010.0
20260505094806 19 158 3.2 14.5 0.00 0.00 0.00 54 1010.0
20260505094306 19 180 1.6 12.9 0.00 0.00 0.00 54 1010.5
20260505093806 19 135 1.6 11.3 0.00 0.00 0.00 54 1010.0
20260505093306 19 90 1.6 11.3 0.00 0.00 0.00 54 1010.0
20260505092807 19 135 3.2 11.3 0.00 0.00 0.00 54 1010.0
20260505092305 19 203 1.6 8.0 0.00 0.00 0.00 55 1010.0
20260505092035 19 180 0.0 6.4 0.00 0.00 0.00 56 1010.0
20260505091305 19 225 0.0 3.2 0.00 0.00 0.00 59 1010.0
20260505090804 19 0 0.0 4.8 0.00 0.00 0.00 58 1010.0
20260505090535 20 180 0.0 8.0 0.00 0.00 0.00 58 1010.0
20260505085805 20 203 1.6 9.7 0.00 0.00 0.00 55 1010.5
20260505085306 20 180 1.6 12.9 0.00 0.00 0.00 55 1010.5
20260505084806 20 158 3.2 19.3 0.00 0.00 0.00 54 1010.5
20260505084306 20 158 3.2 19.3 0.00 0.00 0.00 53 1010.5
20260505083806 20 158 3.2 17.7 0.00 0.00 0.00 53 1010.5
20260505083308 20 158 4.8 24.1 0.00 0.00 0.00 51 1010.5
20260505083304 20 135 3.2 19.3 0.00 0.00 0.00 51 1010.5
20260505082304 20 180 3.2 16.1 0.00 0.00 0.00 50 1010.8
20260505081804 20 203 3.2 16.1 0.00 0.00 0.00 50 1010.8
20260505081304 20 158 3.2 17.7 0.00 0.00 0.00 50 1010.8
20260505080804 21 180 3.2 17.7 0.00 0.00 0.00 49 1010.8
20260505080305 21 158 3.2 19.3 0.00 0.00 0.00 48 1010.8
20260505075804 21 203 4.8 19.3 0.00 0.00 0.00 45 1010.8
20260505075304 21 135 3.2 17.7 0.00 0.00 0.00 45 1010.8
20260505074802 21 180 3.2 19.3 0.00 0.00 0.00 41 1010.8
20260505074302 21 180 3.2 19.3 0.00 0.00 0.00 40 1010.5
20260505073802 21 158 4.8 19.3 0.00 0.00 0.00 40 1010.8
20260505073303 21 203 3.2 16.1 0.00 0.00 0.00 40 1010.5
20260505072803 21 180 3.2 12.9 0.00 0.00 0.00 40 1010.8
20260505072308 21 158 3.2 12.9 0.00 0.00 0.00 40 1010.5
20260505072305 21 225 3.2 12.9 0.00 0.00 0.00 40 1010.5
20260505071304 21 158 3.2 16.1 0.00 0.00 0.00 40 1010.5
20260505070802 21 203 3.2 16.1 0.00 0.00 0.00 40 1010.8
20260505070532 21 135 3.2 12.9 0.00 0.00 0.00 40 1010.8
20260505065801 21 203 3.2 17.7 0.00 0.00 0.00 40 1010.8
20260505065534 21 158 3.2 17.7 0.00 0.00 0.00 39 1010.5
20260505065033 21 248 3.2 19.3 0.00 0.00 0.00 37 1010.8
20260505064303 21 158 4.8 19.3 0.00 0.00 0.00 37 1010.5
20260505063802 21 180 4.8 17.7 0.00 0.00 0.00 35 1010.5
20260505063303 22 203 3.2 17.7 0.00 0.00 0.00 35 1010.0
20260505062803 22 180 3.2 16.1 0.00 0.00 0.00 34 1010.0
20260505062304 22 180 3.2 17.7 0.00 0.00 0.00 34 1010.0
20260505061801 22 180 3.2 17.7 0.00 0.00 0.00 32 1010.0
20260505061301 22 135 3.2 20.9 0.00 0.00 0.00 31 1010.0
20260505060802 22 203 3.2 20.9 0.00 0.00 0.00 30 1010.0
20260505060302 22 180 4.8 17.7 0.00 0.00 0.00 30 1010.0
20260505055802 22 158 4.8 19.3 0.00 0.00 0.00 29 1010.0
20260505055303 22 180 3.2 19.3 0.00 0.00 0.00 27 1010.0
20260505055034 22 158 3.2 16.1 0.00 0.00 0.00 27 1010.0
20260505054302 22 225 3.2 16.1 0.00 0.00 0.00 27 1010.0
20260505053801 22 203 3.2 12.9 0.00 0.00 0.00 29 1010.5
20260505053301 22 135 3.2 11.3 0.00 0.00 0.00 29 1010.5
20260505052800 22 158 1.6 14.5 0.00 0.00 0.00 29 1010.5
20260505052301 22 158 3.2 14.5 0.00 0.00 0.00 30 1010.8
20260505051802 22 180 3.2 14.5 0.00 0.00 0.00 30 1010.8
20260505051302 23 203 3.2 12.9 0.00 0.00 0.00 30 1010.8
20260505050802 23 203 3.2 14.5 0.00 0.00 0.00 29 1010.8
20260505050302 23 180 3.2 14.5 0.00 0.00 0.00 29 1010.5
20260505041519 24 90 1.6 6.4 0.00 0.00 0.00 39 1010.0
20260505041016 24 203 0.0 6.4 0.00 0.00 0.00 39 1010.0
20260505040512 24 113 0.0 6.4 0.00 0.00 0.00 37 1010.0
20260505035740 24 225 1.6 6.4 0.00 0.00 0.00 37 1010.0
20260505035240 24 225 1.6 8.0 0.00 0.00 0.00 37 1010.0
20260505034742 24 248 1.6 8.0 0.00 0.00 0.00 37 1010.0
20260505034513 24 180 1.6 11.3 0.00 0.00 0.00 37 1009.7
20260505033742 24 180 1.6 11.3 0.00 0.00 0.00 37 1009.7
20260505033241 24 248 1.6 9.7 0.00 0.00 0.00 37 1009.7
20260505032741 24 203 0.0 6.4 0.00 0.00 0.00 37 1009.7
20260505032240 24 225 1.6 4.8 0.00 0.00 0.00 37 1009.3
20260505031740 24 180 1.6 4.8 0.00 0.00 0.00 35 1009.3
20260505031511 24 248 0.0 4.8 0.00 0.00 0.00 35 1009.0
20260505030741 24 203 0.0 4.8 0.00 0.00 0.00 35 1009.3
20260505030240 24 158 0.0 8.0 0.00 0.00 0.00 35 1009.0
20260505025722 24 270 1.6 8.0 0.00 0.00 0.00 35 1009.0
20260505025222 24 248 1.6 9.7 0.00 0.00 0.00 35 1009.0
20260505024722 25 225 1.6 9.7 0.00 0.00 0.00 35 1009.3
20260505024222 25 180 3.2 9.7 0.00 0.00 0.00 35 1009.0
20260505023722 25 203 1.6 9.7 0.00 0.00 0.00 35 1009.0
20260505023221 25 180 1.6 9.7 0.00 0.00 0.00 34 1009.3
20260505022721 25 225 1.6 9.7 0.00 0.00 0.00 34 1009.3
20260505022222 25 203 1.6 9.7 0.00 0.00 0.00 34 1009.0
20260505021721 25 225 1.6 6.4 0.00 0.00 0.00 32 1009.0
20260505021223 25 203 1.6 6.4 0.00 0.00 0.00 34 1009.0
20260505020722 25 180 1.6 4.8 0.00 0.00 0.00 34 1009.3
20260505020223 25 180 0.0 4.8 0.00 0.00 0.00 32 1009.0
20260505015722 25 180 0.0 4.8 0.00 0.00 0.00 32 1009.0
20260505015204 25 270 0.0 6.4 0.00 0.00 0.00 32 1009.0
20260505014934 25 225 1.6 6.4 0.00 0.00 0.00 31 1009.0
20260505014433 25 180 0.0 6.4 0.00 0.00 0.00 31 1009.0
20260505013702 25 203 1.6 6.4 0.00 0.00 0.00 31 1008.7
20260505013202 25 225 1.6 6.4 0.00 0.00 0.00 32 1008.7
20260505012645 25 203 0.0 4.8 0.00 0.00 0.00 31 1008.7
20260505012146 26 180 0.0 3.2 0.00 0.00 0.00 34 1009.0
20260505011645 26 225 0.0 3.2 0.00 0.00 0.00 32 1009.0
20260505011416 26 203 0.0 3.2 0.00 0.00 0.00 34 1009.0
20260505010645 26 68 0.0 6.4 0.00 0.00 0.00 35 1008.7
20260505010144 26 248 1.6 6.4 0.00 0.00 0.00 35 1009.0
20260505005643 26 248 1.6 6.4 0.00 0.00 0.00 34 1008.7
20260505005144 26 270 1.6 6.4 0.00 0.00 0.00 34 1009.0
20260505004644 26 270 1.6 6.4 0.00 0.00 0.00 34 1009.0
20260505004145 26 158 0.0 6.4 0.00 0.00 0.00 32 1008.7
20260505003645 26 180 1.6 6.4 0.00 0.00 0.00 34 1009.0
20260505003145 26 203 0.0 4.8 0.00 0.00 0.00 32 1008.7
20260505002645 26 270 0.0 6.4 0.00 0.00 0.00 34 1009.0
20260505002145 26 248 1.6 6.4 0.00 0.00 0.00 34 1009.0
20260505001644 26 203 0.0 6.4 0.00 0.00 0.00 34 1009.0
20260505001415 26 293 0.0 6.4 0.00 0.00 0.00 34 1009.0
20260505000643 26 338 1.6 6.4 0.00 0.00 0.00 34 1009.0
20260505000415 26 180 1.6 6.4 0.00 0.00 0.00 34 1009.3
20260504235645 26 90 1.6 4.8 0.00 0.00 0.00 34 1009.3